This demonstration page uses our WeatherBlox Daily Observations layout. Learn more.

Left ArrowRight Arrow

39.92423, -83.80882

Hourly Observations for July 5, 2021

Temp ( °F °C ) Dew Point ( °F °C ) Humidity (%) Winds ( mph kmh ) Pressure ( in mb ) Visibility ( mi km ) Precip ( " mm )
12:56 am 00:56 Clear 72 22 N/A N/A W 6 9 30.00 1016 10 16 N/A
1:56 am 01:56 Clear 72 22 N/A N/A W 6 9 30.00 1016 10 16 N/A
2:56 am 02:56 Clear 70 21 N/A N/A WNW 5 7 30.00 1016 10 16 N/A
3:56 am 03:56 Clear 72 22 N/A N/A N N/A 30.00 1016 10 16 N/A
4:56 am 04:56 Clear 70 21 N/A N/A W 5 7 30.00 1016 10 16 N/A
5:56 am 05:56 Clear 68 20 N/A N/A W 3 6 30.01 1016 8 13 N/A
6:56 am 06:56 Sunny 70 21 N/A N/A N N/A 30.03 1017 7 11 N/A
7:56 am 07:56 Sunny 73 22.8 73 22.8 100 100 WNW 6 9 30.04 1017 10 16 N/A
8:56 am 08:56 Sunny 76 24.4 74 23.3 94 94 NW 8 13 30.06 1018 10 16 N/A
9:56 am 09:56 Sunny 79 26.1 73 22.8 82 82 W 6 9 30.06 1018 10 16 N/A
10:56 am 10:56 Sunny 81 27.2 74 23.3 79 79 VRB 5 7 30.06 1018 10 16 N/A
11:56 am 11:56 Sunny 84 28.9 75 23.9 74 74 W 6 9 30.06 1018 10 16 N/A
12:56 pm 12:56 Sunny 85 29.4 72 22.2 65 65 W 6 9 30.06 1018 10 16 N/A
1:56 pm 13:56 Sunny 87 30.6 73 22.8 63 63 SW 5 7 30.06 1018 10 16 N/A
2:56 pm 14:56 Sunny 89 31.7 72 22.2 57 57 SW 7 11 30.05 1018 10 16 N/A
3:56 pm 15:56 Sunny 88 31.1 73 22.8 61 61 VRB 5 7 30.04 1017 10 16 N/A
4:56 pm 16:56 Mostly Sunny 89 31.7 72 22.2 57 57 W 8 13 30.03 1017 10 16 N/A
5:56 pm 17:56 Mostly Sunny 87 30.6 74 23.3 65 65 SSW 6 9 30.03 1017 10 16 N/A
6:56 pm 18:56 Mostly Sunny 87 30.6 74 23.3 65 65 W 6 9 30.03 1017 10 16 N/A
7:56 pm 19:56 Sunny 85 29.4 75 23.9 72 72 W 6 9 30.03 1017 10 16 N/A
8:56 pm 20:56 Sunny 80 26.7 75 23.9 85 85 W 5 7 30.04 1017 10 16 N/A
9:56 pm 21:56 Clear 78 25.6 74 23.3 87 87 W 6 9 30.05 1018 9 14 N/A
10:56 pm 22:56 Clear 75 23.9 75 23.9 100 100 WSW 5 7 30.06 1018 10 16 N/A
11:56 pm 23:56 Clear 73 22.8 73 22.8 100 100 WSW 5 7 30.06 1018 10 16 N/A

Powered by AerisWeather